When you browse on this site, cookies collect data to enhance your experience and personalize the content and advertising you see.
Visit our Privacy Policy to learn more. By continuing to use the site, you agree to this use of cookies and data.
  • En España
  • Lista de países
  • Para 7 días
  • Temperatura del agua
  • El tiempo en el mapa
  • Informadores
  • user-avatar
    Iniciar sesión

    Tiempo cada hora Lewis

    Hoy, 17 Septiembre, Martes

    Tiempo Temperatura Precipitaciones Viento Presión Humedad
    00:00 +6°C° 0 mm 8 mps 757 mmHg 73%
    01:00 +6°C° 0 mm 8 mps 757 mmHg 72%
    02:00 +6°C° 0 mm 8 mps 757 mmHg 72%
    03:00 +6°C° 0 mm 7 mps 758 mmHg 72%
    04:00 +6°C° 0 mm 7 mps 758 mmHg 72%
    05:00 +6°C° 0 mm 7 mps 758 mmHg 72%
    06:00 +6°C° 0 mm 7 mps 759 mmHg 72%
    07:00 +8°C° 0 mm 6 mps 759 mmHg 70%
    08:00 +8°C° 0 mm 6 mps 760 mmHg 69%
    09:00 +9°C° 0 mm 5 mps 760 mmHg 68%
    10:00 +9°C° 0 mm 5 mps 760 mmHg 67%
    11:00 +10°C° 0 mm 4 mps 760 mmHg 65%
    12:00 +11°C° 0 mm 4 mps 761 mmHg 64%
    13:00 +11°C° 0 mm 3 mps 761 mmHg 64%
    14:00 +11°C° 0 mm 3 mps 761 mmHg 65%
    15:00 +11°C° 0 mm 3 mps 761 mmHg 65%
    16:00 +10°C° 0.1 mm 2 mps 761 mmHg 69%
    17:00 +9°C° 0.1 mm 2 mps 761 mmHg 73%
    18:00 +9°C° 0.1 mm 2 mps 761 mmHg 77%
    19:00 +8°C° 0.2 mm 2 mps 761 mmHg 80%
    20:00 +8°C° 0.2 mm 2 mps 761 mmHg 82%
    21:00 +8°C° 0.2 mm 2 mps 761 mmHg 85%
    22:00 +8°C° 0.4 mm 3 mps 761 mmHg 86%
    23:00 +7°C° 0.4 mm 4 mps 761 mmHg 87%

    Mañana, 18 Septiembre, Miércoles

    Tiempo Temperatura Precipitaciones Viento Presión Humedad
    00:00 +6°C° 0.4 mm 5 mps 760 mmHg 89%
    01:00 +7°C° 0.7 mm 5 mps 760 mmHg 91%
    02:00 +8°C° 0.7 mm 6 mps 760 mmHg 93%
    03:00 +9°C° 0.7 mm 7 mps 759 mmHg 96%
    04:00 +9°C° 0.5 mm 6 mps 759 mmHg 96%
    05:00 +10°C° 0.5 mm 6 mps 759 mmHg 97%
    06:00 +11°C° 0.5 mm 6 mps 759 mmHg 97%
    07:00 +11°C° 0.1 mm 6 mps 759 mmHg 96%
    08:00 +13°C° 0.1 mm 6 mps 760 mmHg 95%
    09:00 +13°C° 0.1 mm 5 mps 760 mmHg 94%
    10:00 +13°C° 0 mm 5 mps 760 mmHg 92%
    11:00 +14°C° 0 mm 5 mps 760 mmHg 89%
    12:00 +14°C° 0 mm 5 mps 760 mmHg 87%
    13:00 +14°C° 0 mm 5 mps 760 mmHg 85%
    14:00 +15°C° 0 mm 5 mps 761 mmHg 83%
    15:00 +15°C° 0 mm 5 mps 761 mmHg 81%
    16:00 +14°C° 0 mm 4 mps 761 mmHg 84%
    17:00 +13°C° 0 mm 4 mps 761 mmHg 87%
    18:00 +13°C° 0 mm 4 mps 761 mmHg 91%
    19:00 +13°C° 0 mm 4 mps 761 mmHg 91%
    20:00 +12°C° 0 mm 4 mps 761 mmHg 91%
    21:00 +12°C° 0 mm 4 mps 762 mmHg 92%
    22:00 +12°C° 0 mm 4 mps 761 mmHg 93%
    23:00 +12°C° 0 mm 4 mps 761 mmHg 94%

    Pasado mañana, 19 Septiembre, Jueves

    Tiempo Temperatura Precipitaciones Viento Presión Humedad
    00:00 +12°C° 0 mm 4 mps 761 mmHg 94%
    01:00 +12°C° 0 mm 4 mps 761 mmHg 95%
    02:00 +12°C° 0 mm 4 mps 761 mmHg 95%
    03:00 +12°C° 0 mm 4 mps 761 mmHg 95%
    04:00 +12°C° 0 mm 5 mps 761 mmHg 95%
    05:00 +10°C° 0 mm 5 mps 761 mmHg 95%
    06:00 +10°C° 0 mm 5 mps 761 mmHg 95%
    07:00 +10°C° 0 mm 5 mps 761 mmHg 92%
    08:00 +11°C° 0 mm 6 mps 761 mmHg 89%
    09:00 +13°C° 0 mm 6 mps 761 mmHg 87%
    10:00 +14°C° 0 mm 6 mps 761 mmHg 82%
    11:00 +14°C° 0 mm 7 mps 761 mmHg 78%
    12:00 +15°C° 0 mm 7 mps 761 mmHg 74%
    13:00 +15°C° 0 mm 7 mps 761 mmHg 74%
    14:00 +15°C° 0 mm 7 mps 761 mmHg 73%
    15:00 +15°C° 0 mm 8 mps 760 mmHg 73%
    16:00 +14°C° 0 mm 7 mps 760 mmHg 76%
    17:00 +12°C° 0 mm 7 mps 760 mmHg 80%
    18:00 +12°C° 0 mm 7 mps 760 mmHg 84%
    19:00 +11°C° 0 mm 7 mps 760 mmHg 86%
    20:00 +11°C° 0 mm 7 mps 760 mmHg 89%
    21:00 +10°C° 0 mm 6 mps 760 mmHg 92%
    22:00 +10°C° 0 mm 6 mps 759 mmHg 91%
    23:00 +10°C° 0 mm 6 mps 759 mmHg 90%

    20 Septiembre, Viernes

    Tiempo Temperatura Precipitaciones Viento Presión Humedad
    00:00 +10°C° 0 mm 6 mps 759 mmHg 88%
    01:00 +10°C° 0 mm 6 mps 758 mmHg 90%
    02:00 +10°C° 0 mm 7 mps 758 mmHg 92%
    03:00 +10°C° 0 mm 7 mps 758 mmHg 93%
    04:00 +11°C° 0 mm 6 mps 757 mmHg 94%
    05:00 +11°C° 0 mm 6 mps 757 mmHg 95%
    06:00 +11°C° 0 mm 6 mps 756 mmHg 95%
    07:00 +11°C° 0 mm 6 mps 756 mmHg 91%
    08:00 +12°C° 0 mm 7 mps 756 mmHg 87%
    09:00 +14°C° 0 mm 7 mps 756 mmHg 83%
    10:00 +15°C° 0 mm 7 mps 755 mmHg 78%
    11:00 +15°C° 0 mm 7 mps 755 mmHg 73%
    12:00 +16°C° 0 mm 8 mps 755 mmHg 69%
    13:00 +16°C° 0 mm 8 mps 754 mmHg 67%
    14:00 +16°C° 0 mm 8 mps 753 mmHg 66%
    15:00 +16°C° 0 mm 8 mps 753 mmHg 65%
    16:00 +15°C° 0 mm 7 mps 752 mmHg 69%
    17:00 +15°C° 0 mm 7 mps 752 mmHg 72%
    18:00 +14°C° 0 mm 7 mps 751 mmHg 75%
    19:00 +14°C° 0 mm 7 mps 751 mmHg 76%
    20:00 +14°C° 0 mm 7 mps 750 mmHg 77%
    21:00 +12°C° 0 mm 7 mps 750 mmHg 78%
    22:00 +12°C° 0 mm 7 mps 750 mmHg 80%
    23:00 +12°C° 0 mm 7 mps 749 mmHg 81%

    21 Septiembre, Sábado

    Tiempo Temperatura Precipitaciones Viento Presión Humedad
    00:00 +12°C° 0 mm 8 mps 749 mmHg 83%
    01:00 +12°C° 0 mm 8 mps 748 mmHg 84%
    02:00 +12°C° 0 mm 8 mps 747 mmHg 84%
    03:00 +11°C° 0 mm 7 mps 747 mmHg 85%
    04:00 +11°C° 0 mm 7 mps 746 mmHg 84%
    05:00 +11°C° 0 mm 7 mps 746 mmHg 84%
    06:00 +11°C° 0 mm 7 mps 745 mmHg 83%
    07:00 +11°C° 0 mm 7 mps 745 mmHg 76%
    08:00 +12°C° 0 mm 7 mps 745 mmHg 70%
    09:00 +14°C° 0 mm 7 mps 744 mmHg 63%
    10:00 +15°C° 0 mm 7 mps 744 mmHg 61%
    11:00 +16°C° 0 mm 7 mps 743 mmHg 58%
    12:00 +16°C° 0 mm 7 mps 743 mmHg 55%
    13:00 +16°C° 0 mm 8 mps 743 mmHg 57%
    14:00 +16°C° 0 mm 8 mps 742 mmHg 59%
    15:00 +16°C° 0 mm 8 mps 742 mmHg 61%
    16:00 +15°C° 0.1 mm 8 mps 741 mmHg 67%
    17:00 +13°C° 0.1 mm 8 mps 741 mmHg 74%
    18:00 +12°C° 0.1 mm 8 mps 741 mmHg 81%
    19:00 +12°C° 0.6 mm 7 mps 741 mmHg 84%
    20:00 +12°C° 0.6 mm 7 mps 740 mmHg 87%
    21:00 +13°C° 0.6 mm 6 mps 740 mmHg 90%
    22:00 +13°C° 0.4 mm 6 mps 740 mmHg 92%
    23:00 +13°C° 0.4 mm 5 mps 740 mmHg 93%

    22 Septiembre, Domingo

    Tiempo Temperatura Precipitaciones Viento Presión Humedad
    00:00 +13°C° 0.4 mm 5 mps 739 mmHg 94%
    01:00 +13°C° 0.8 mm 4 mps 739 mmHg 95%
    02:00 +12°C° 0.8 mm 3 mps 739 mmHg 96%
    03:00 +12°C° 0.8 mm 3 mps 738 mmHg 97%
    04:00 +12°C° 0.7 mm 3 mps 738 mmHg 97%
    05:00 +12°C° 0.7 mm 3 mps 738 mmHg 96%
    06:00 +12°C° 0.7 mm 3 mps 738 mmHg 95%
    07:00 +12°C° 0.1 mm 4 mps 738 mmHg 92%
    08:00 +13°C° 0.1 mm 5 mps 738 mmHg 90%
    09:00 +13°C° 0.1 mm 5 mps 738 mmHg 87%
    10:00 +13°C° 0.1 mm 6 mps 738 mmHg 83%
    11:00 +14°C° 0.1 mm 6 mps 739 mmHg 79%
    12:00 +14°C° 0.1 mm 7 mps 739 mmHg 76%
    13:00 +14°C° 0.2 mm 7 mps 738 mmHg 76%
    14:00 +14°C° 0.2 mm 7 mps 738 mmHg 76%
    15:00 +14°C° 0.2 mm 7 mps 738 mmHg 76%
    16:00 +12°C° 0.1 mm 7 mps 739 mmHg 80%
    17:00 +11°C° 0.1 mm 7 mps 739 mmHg 83%
    18:00 +10°C° 0.1 mm 8 mps 739 mmHg 86%
    19:00 +10°C° 0.1 mm 8 mps 740 mmHg 86%
    20:00 +10°C° 0.1 mm 9 mps 741 mmHg 85%
    21:00 +8°C° 0.1 mm 9 mps 742 mmHg 84%
    22:00 +8°C° 0 mm 9 mps 742 mmHg 84%
    23:00 +9°C° 0 mm 8 mps 742 mmHg 83%
    Mostrar más